This demonstration page uses our WeatherBlox Daily Observations layout. Learn more.

Left ArrowRight Arrow

39.08367, -84.50855

Hourly Observations for June 8, 2015

Temp ( °F °C ) Dew Point ( °F °C ) Humidity (%) Winds ( mph kmh ) Pressure ( in mb ) Visibility ( mi km ) Precip ( " mm )
12:53 am 00:53 Clear 72 22.2 67 19.4 84 84 SW 5 7 29.87 1012 10 16 N/A
1:53 am 01:53 Clear 73 22.8 66 18.9 79 79 SSW 6 9 29.85 1011 10 16 N/A
2:53 am 02:53 Clear 74 23.3 66 18.9 76 76 SSW 9 15 29.83 1010 10 16 N/A
3:53 am 03:53 Mostly Clear 77 25 65 18.3 66 66 SSW 14 22 29.81 1010 10 16 N/A
4:53 am 04:53 Clear 76 24.4 65 18.3 69 69 SSW 12 19 29.81 1010 10 16 N/A
5:53 am 05:53 Clear 75 23.9 65 18.3 71 71 SW 10 17 29.82 1010 10 16 N/A
6:53 am 06:53 Mostly Cloudy 75 23.9 65 18.3 71 71 SW 8 13 29.84 1010 10 16 N/A
7:53 am 07:53 Sunny 74 23.3 65 18.3 74 74 WSW 8 13 29.84 1011 10 16 N/A
8:53 am 08:53 Mostly Cloudy 73 22.8 63 17.2 71 71 SW 10 17 29.85 1011 10 16 N/A
9:53 am 09:53 Mostly Cloudy 72 22.2 65 18.3 79 79 SW 14 22 29.84 1011 10 16 N/A
10:53 am 10:53 Mostly Sunny 71 21.7 66 18.9 84 84 S 16 26 29.81 1010 10 16 N/A
11:53 am 11:53 Mostly Cloudy 72 22.2 66 18.9 82 82 SSW 8 13 29.81 1010 10 16 N/A
12:53 pm 12:53 Partly Cloudy 76 24.4 67 19.4 74 74 SSW 13 20 29.82 1010 10 16 N/A
1:53 pm 13:53 Mostly Sunny 78 25.6 66 18.9 67 67 WSW 13 20 29.80 1009 10 16 N/A
2:53 pm 14:53 Partly Cloudy 77 25 64 17.8 64 64 WSW 20 31 29.80 1009 10 16 N/A
3:53 pm 15:53 Partly Cloudy 77 25 64 17.8 64 64 W 10 17 29.77 1008 10 16 N/A
4:53 pm 16:53 Cloudy 77 25 64 17.8 64 64 W 12 19 29.78 1008 10 16 N/A
5:53 pm 17:53 Partly Cloudy 76 24.4 64 17.8 67 67 WSW 14 22 29.77 1008 10 16 N/A
6:53 pm 18:53 Sunny 75 23.9 65 18.3 71 71 WSW 14 22 29.74 1007 10 16 N/A
7:53 pm 19:53 Mostly Cloudy 75 23.9 65 18.3 71 71 SSW 12 19 29.75 1008 10 16 N/A
8:53 pm 20:53 Mostly Cloudy 73 22.8 63 17.2 71 71 SW 13 20 29.77 1008 10 16 N/A
9:53 pm 21:53 Mostly Clear 71 21.7 63 17.2 76 76 SW 7 11 29.78 1008 10 16 N/A
10:53 pm 22:53 Mostly Cloudy 72 22.2 64 17.8 76 76 SW 6 9 29.80 1009 10 16 N/A
11:08 pm 23:08 Cloudy 72 22 64 18 78 78 SW 8 13 29.80 1009 10 16 N/A
11:37 pm 23:37 Cloudy with Nearby Thunderstorms 66 18.9 55 12.8 68 68 NNW 17 28 29.88 1012 10 16 N/A
11:44 pm 23:44 Cloudy with Nearby Thunderstorms 63 17 57 14 83 83 N 16 26 29.88 1012 6 10 N/A
11:53 pm 23:53 Cloudy with Nearby Thunderstorms 61 16.1 57 13.9 87 87 N 8 13 29.88 1012 2 3 0.18 4.57
11:58 pm 23:58 Cloudy with Heavy Rain 61 16 57 14 88 88 N 7 11 29.88 1012 2 3 N/A

Powered by AerisWeather